{"data":{"norad_id":61789,"epoch":"2026-05-25T04:20:01.828608Z","epoch_age_seconds":49521,"freshness":"FRESH","line1":"1 61789U 24199BG  26145.18057672  .00003118  00000+0  26972-3 0  9991","line2":"2 61789  97.3262 346.2284 0007403 136.9764 223.2039 14.97820028128598","mean_motion":14.97820028,"eccentricity":0.0007403,"inclination_deg":97.3262,"raan_deg":346.2284,"arg_perigee_deg":136.9764,"mean_anomaly_deg":223.2039,"bstar":0.00026972,"rev_number":12859,"period_min":96.139721266967,"perigee_km":568.48698910949,"apogee_km":578.77978034111,"semimajor_km":6951.7703847253,"source":"CELESTRAK","updated_at":"2026-05-25T13:38:02.564248Z"}}